Weather in Uchkent

Russia / Republic of Dagestan     43°06′48″N   47°04′55″E
temp.,
°C
wind,
m/s
gust,
m/s
humid.,
%
clouds,
%
prec.,
mm/h
press.,
hPa
HPBL,
m
14 may, fri
fri1400:00+15s11821 0.0 101411
03:00+15sse22692 0.0 101414
06:00+19ssw22520 0.0 101430
09:00+26ese35330 0.0 1013575
12:00+30ese77291 0.0 10121149
15:00+29ese910320 0.0 1011978
18:00+24ese484899 0.0 1012210
21:00+19ssw445593 0.0 101355
15 may, sat
sat1500:00+18s44521 0.0 101344
03:00+18s33540 0.0 101228
06:00+20ssw33540 0.0 101259
09:00+27ese44330 0.0 1013957
12:00+29ese65250 0.0 10121354
15:00+28ese66270 0.0 10121033
18:00+24ese46370 0.0 1012126
21:00+19sse224698 0.0 101314
16 may, sun
sun1600:00+19s335223 0.0 101217
03:00+18s335730 0.0 101120
06:00+20s34586 0.0 101183
09:00+27se78301 0.0 10101063
12:00+28ese109240 0.0 10081234
15:00+28se1011290 0.0 10071092
18:00+24se710400 0.0 1007324
21:00+20sse46490 0.0 100796
17 may, mon
mon1700:00+19s34455 0.0 100650
03:00+18s43348 0.0 100632
06:00+19s34415 0.0 100669
09:00+27se452884 0.0 1005724
12:00+28e5428100 0.0 1005783
15:00+28ese443147 0.0 1005650
18:00+24ese344553 0.0 100498
21:00+20ssw11525 0.0 100611
18 may, tue
tue1800:00+19wnw116491 0.0 100812
03:00+17nw117693 0.0 100813
06:00+19nnw116893 0.0 101094
09:00+23nw555799 0.0 1010927
12:00+24nw8955100 0.0 10111222
15:00+21wnw7964100 0.3 1011839
18:00+20wnw4865100 0.1 1012737
21:00+17sw2290100 5.2 1014111